NORTHEAST SUFFOLK  -  Winter Weather Advisory Winter Weather Advisory     Winter Weather Advisory Winter Weather Advisory        NORTHERN NASSAU  -  Winter Weather Advisory Winter Weather Advisory        NORTHWEST SUFFOLK  -  Winter Weather Advisory Winter Weather Advisory     Winter Weather Advisory Winter Weather Advisory        SOUTHEAST SUFFOLK  -  Winter Weather Advisory Winter Weather Advisory     Winter Weather Advisory Winter Weather Advisory        SOUTHERN NASSAU  -  Winter Weather Advisory Winter Weather Advisory        SOUTHWEST SUFFOLK  -  Winter Weather Advisory Winter Weather Advisory     Winter Weather Advisory Winter Weather Advisory      

Active alerts

Northern Nassau
  Details for Northern Nassau Winter Weather Advisory
Southern Nassau
  Details for Southern Nassau Winter Weather Advisory
Northwest Suffolk
  Details for Northwest Suffolk Winter Weather Advisory  +1 additional alert
Southwest Suffolk
  Details for Southwest Suffolk Winter Weather Advisory  +1 additional alert
Northeast Suffolk
  Details for Northeast Suffolk Winter Weather Advisory  +1 additional alert
Southeast Suffolk
  Details for Southeast Suffolk Winter Weather Advisory  +1 additional alert


WXM80 ListenWXM80 Stop

You find our weather info also at:

UK Metoffice

WeatherCloud

Weather Underground

Northeastern Weather Network

AWEKAS

Citizen Weather Observer Program (CWOP)

HAMweather, WeatherForYou, PWS Weather


Weather Underground History page Text

Daily Summary for February 5, 2017 Units:  English    Metric   Both
« Previous Day
Next Day »
Daily Weekly Monthly Yearly Custom
  High: Low: Average:
Temperature: 43.1 °F 28.8 °F 36.7 °F
Dew Point: 28.8 °F 13.7 °F 22.4 °F
Humidity: 68 % 44 % 56 %
Wind Speed: 10.4 mph 0.0 mph 3.8 mph
Wind Gust: 19.6 mph - -
Wind:- - WSW
Pressure: 30.23 in 29.80 in -
Precipitation: 0.00 in    
Historical Graphs
 
 
Tabular Data for February 5, 2017
Time Temperature Dew Point Pressure Wind Wind Speed Wind Gust Humidity Rainfall Rate (Hourly)
00:01 31.8 °F 15.3 °F 30.23 in SW 1.2 mph 3.5 mph 50 % 0.00 in
00:06 31.7 °F 15.2 °F 30.23 in SW 2.7 mph 3.5 mph 50 % 0.00 in
00:11 31.6 °F 15.1 °F 30.23 in SW 2.4 mph 5.8 mph 50 % 0.00 in
00:16 31.6 °F 14.6 °F 30.23 in SW 2.7 mph 3.5 mph 49 % 0.00 in
00:21 31.5 °F 14.5 °F 30.23 in SW 1.9 mph 3.5 mph 49 % 0.00 in
00:26 31.4 °F 14.4 °F 30.23 in WSW 1.9 mph 3.5 mph 49 % 0.00 in
00:31 31.4 °F 14.4 °F 30.22 in SW 2.4 mph 3.5 mph 49 % 0.00 in
00:36 31.3 °F 14.3 °F 30.22 in SW 0.4 mph 1.2 mph 49 % 0.00 in
00:41 31.2 °F 14.2 °F 30.22 in SW 0.6 mph 2.3 mph 49 % 0.00 in
00:46 31.1 °F 14.1 °F 30.21 in Calm     49 % 0.00 in
00:51 31.1 °F 14.1 °F 30.21 in SW 0.8 mph 3.5 mph 49 % 0.00 in
00:56 31.0 °F 14.0 °F 30.22 in SW 1.1 mph 2.3 mph 49 % 0.00 in
01:01 30.9 °F 14.4 °F 30.22 in SW 1.2 mph 2.3 mph 50 % 0.00 in
01:06 30.8 °F 14.3 °F 30.22 in Calm   1.2 mph 50 % 0.00 in
01:11 30.7 °F 14.2 °F 30.21 in SW 0.1 mph 1.2 mph 50 % 0.00 in
01:16 30.6 °F 14.6 °F 30.21 in SW 1.3 mph 3.5 mph 51 % 0.00 in
01:21 30.6 °F 14.1 °F 30.21 in SW 0.1 mph   50 % 0.00 in
01:26 30.5 °F 14.5 °F 30.21 in SW 0.2 mph 1.2 mph 51 % 0.00 in
01:31 30.4 °F 14.4 °F 30.21 in SW 0.1 mph 1.0 mph 51 % 0.00 in
01:36 30.3 °F 14.3 °F 30.21 in SW 0.3 mph 2.3 mph 51 % 0.00 in
01:41 30.2 °F 14.2 °F 30.21 in SW 1.6 mph 3.5 mph 51 % 0.00 in
01:46 30.1 °F 14.1 °F 30.21 in SW 0.1 mph 1.2 mph 51 % 0.00 in
01:51 30.0 °F 14.5 °F 30.21 in SW 1.4 mph 3.0 mph 52 % 0.00 in
01:56 29.9 °F 14.4 °F 30.21 in SW 1.4 mph 3.5 mph 52 % 0.00 in
02:01 29.7 °F 14.2 °F 30.21 in SW 0.1 mph 1.2 mph 52 % 0.00 in
02:06 29.6 °F 14.1 °F 30.20 in SW 1.0 mph 2.3 mph 52 % 0.00 in
02:12 29.5 °F 14.0 °F 30.20 in SW 0.4 mph 2.3 mph 52 % 0.00 in
02:17 29.4 °F 13.9 °F 30.20 in SW 0.7 mph 2.3 mph 52 % 0.00 in
02:22 29.3 °F 13.8 °F 30.20 in Calm     52 % 0.00 in
02:27 29.2 °F 13.7 °F 30.20 in SW 1.2 mph 3.5 mph 52 % 0.00 in
02:32 29.1 °F 14.1 °F 30.19 in SW 0.5 mph 1.2 mph 53 % 0.00 in
02:37 29.0 °F 14.0 °F 30.19 in SW 0.3 mph 1.2 mph 53 % 0.00 in
02:42 29.0 °F 14.0 °F 30.19 in SW 0.5 mph 2.3 mph 53 % 0.00 in
02:47 28.9 °F 13.9 °F 30.20 in SW 0.4 mph 1.2 mph 53 % 0.00 in
02:52 28.8 °F 13.8 °F 30.19 in SSW 0.1 mph 2.3 mph 53 % 0.00 in
02:57 28.8 °F 14.2 °F 30.19 in SSW 0.9 mph 3.5 mph 54 % 0.00 in
03:02 28.8 °F 14.2 °F 30.18 in SSW 1.5 mph 3.0 mph 54 % 0.00 in
03:07 28.8 °F 14.6 °F 30.18 in SSW 1.2 mph 2.3 mph 55 % 0.00 in
03:12 28.8 °F 15.1 °F 30.18 in SSW 4.9 mph 6.0 mph 56 % 0.00 in
03:17 28.8 °F 15.1 °F 30.17 in SSW 1.0 mph 2.3 mph 56 % 0.00 in
03:22 28.9 °F 15.6 °F 30.17 in SSW 2.5 mph 3.5 mph 57 % 0.00 in
03:27 28.9 °F 15.6 °F 30.17 in SW 2.0 mph 3.0 mph 57 % 0.00 in
03:32 29.0 °F 15.7 °F 30.17 in SW 1.8 mph 3.5 mph 57 % 0.00 in
03:37 29.0 °F 15.7 °F 30.16 in SW 0.4 mph 3.5 mph 57 % 0.00 in
03:42 29.1 °F 16.1 °F 30.16 in SW 1.2 mph 3.5 mph 58 % 0.00 in
03:47 29.2 °F 16.2 °F 30.15 in Calm   3.5 mph 58 % 0.00 in
03:52 29.2 °F 16.2 °F 30.15 in SW 0.1 mph 1.2 mph 58 % 0.00 in
03:57 29.3 °F 16.3 °F 30.15 in Calm     58 % 0.00 in
03:58 29.3 °F 16.3 °F 30.15 in Calm   1.2 mph 58 % 0.00 in
04:03 29.3 °F 16.3 °F 30.15 in SW 1.0 mph 2.0 mph 58 % 0.00 in
04:08 29.3 °F 16.8 °F 30.15 in SW 1.0 mph 3.0 mph 59 % 0.00 in
04:13 29.4 °F 16.8 °F 30.14 in SW 1.0 mph 4.0 mph 59 % 0.00 in
04:18 29.3 °F 16.7 °F 30.14 in SSW 2.7 mph 3.5 mph 59 % 0.00 in
04:23 29.4 °F 16.8 °F 30.14 in SW 2.0 mph 7.0 mph 59 % 0.00 in
04:28 29.5 °F 16.9 °F 30.14 in SW 1.0 mph 5.0 mph 59 % 0.00 in
04:33 29.6 °F 17.0 °F 30.14 in SSW 1.0 mph 4.0 mph 59 % 0.00 in
04:38 29.6 °F 17.4 °F 30.14 in SSW 2.1 mph 4.0 mph 60 % 0.00 in
04:43 29.7 °F 17.5 °F 30.14 in SSW 1.0 mph 6.0 mph 60 % 0.00 in
04:48 29.8 °F 18.0 °F 30.13 in SSW 1.0 mph 5.0 mph 61 % 0.00 in
04:53 29.9 °F 18.1 °F 30.13 in SSW 2.0 mph 7.0 mph 61 % 0.00 in
04:59 30.1 °F 18.3 °F 30.13 in SSW 2.3 mph 6.9 mph 61 % 0.00 in
05:04 30.2 °F 18.4 °F 30.12 in SSW 2.1 mph 5.0 mph 61 % 0.00 in
05:09 30.3 °F 18.8 °F 30.12 in South 2.7 mph 4.6 mph 62 % 0.00 in
05:14 30.4 °F 18.9 °F 30.12 in SSW 3.3 mph 4.6 mph 62 % 0.00 in
05:19 30.6 °F 18.7 °F 30.12 in SSW 2.6 mph 3.5 mph 61 % 0.00 in
05:24 30.7 °F 18.8 °F 30.12 in SSW 2.7 mph 4.6 mph 61 % 0.00 in
05:29 30.7 °F 19.2 °F 30.11 in SSW 2.5 mph 4.6 mph 62 % 0.00 in
05:34 30.9 °F 19.4 °F 30.11 in South 2.9 mph 4.6 mph 62 % 0.00 in
05:39 31.1 °F 19.6 °F 30.11 in South 1.6 mph 3.5 mph 62 % 0.00 in
05:44 31.2 °F 19.7 °F 30.10 in SSW 2.2 mph 3.5 mph 62 % 0.00 in
05:49 31.2 °F 20.1 °F 30.10 in SSW 2.6 mph 4.6 mph 63 % 0.00 in
05:54 31.4 °F 20.2 °F 30.10 in South 2.5 mph 4.6 mph 63 % 0.00 in
05:59 31.4 °F 20.2 °F 30.09 in SSW 1.8 mph 3.5 mph 63 % 0.00 in
06:04 31.4 °F 20.2 °F 30.09 in South 2.6 mph 5.8 mph 63 % 0.00 in
06:09 31.4 °F 20.2 °F 30.08 in South 3.0 mph 4.6 mph 63 % 0.00 in
06:14 31.4 °F 20.6 °F 30.08 in South 2.9 mph 4.0 mph 64 % 0.00 in
06:19 31.4 °F 20.6 °F 30.08 in South 2.5 mph 3.5 mph 64 % 0.00 in
06:24 31.3 °F 20.5 °F 30.08 in SSW 2.3 mph 3.5 mph 64 % 0.00 in
06:29 31.3 °F 20.5 °F 30.08 in SW 0.8 mph 2.3 mph 64 % 0.00 in
06:34 31.3 °F 20.9 °F 30.08 in SSW 2.1 mph 2.3 mph 65 % 0.00 in
06:39 31.3 °F 20.9 °F 30.08 in SSW 4.6 mph 5.0 mph 65 % 0.00 in
06:44 31.4 °F 21.0 °F 30.08 in SSW 2.4 mph 3.5 mph 65 % 0.00 in
06:49 31.4 °F 21.3 °F 30.07 in SW 3.2 mph 5.8 mph 66 % 0.00 in
06:54 31.5 °F 21.1 °F 30.07 in South 2.3 mph 5.8 mph 65 % 0.00 in
06:59 31.5 °F 21.4 °F 30.07 in SSW 2.6 mph 4.6 mph 66 % 0.00 in
07:05 31.6 °F 21.2 °F 30.07 in SSW 2.2 mph 4.6 mph 65 % 0.00 in
07:10 31.6 °F 21.2 °F 30.07 in SW 2.9 mph 4.0 mph 65 % 0.00 in
07:15 31.7 °F 21.6 °F 30.07 in SW 3.3 mph 8.0 mph 66 % 0.00 in
07:20 31.8 °F 21.7 °F 30.07 in SW 5.1 mph 8.1 mph 66 % 0.00 in
07:25 32.0 °F 21.9 °F 30.07 in SW 2.8 mph 3.5 mph 66 % 0.00 in
07:30 32.1 °F 22.0 °F 30.07 in SW 3.1 mph 7.0 mph 66 % 0.00 in
07:35 32.3 °F 22.2 °F 30.06 in SSW 2.1 mph 3.5 mph 66 % 0.00 in
07:40 32.4 °F 22.3 °F 30.06 in SW 4.4 mph 5.8 mph 66 % 0.00 in
07:45 32.5 °F 22.4 °F 30.05 in SSW 3.2 mph 4.6 mph 66 % 0.00 in
07:50 32.7 °F 22.6 °F 30.05 in WSW 1.7 mph 5.0 mph 66 % 0.00 in
07:55 32.8 °F 22.7 °F 30.05 in SSW 1.4 mph 3.5 mph 66 % 0.00 in
08:00 32.9 °F 22.8 °F 30.05 in SW 1.9 mph 3.5 mph 66 % 0.00 in
08:05 33.1 °F 23.0 °F 30.04 in WSW 3.0 mph 6.9 mph 66 % 0.00 in
08:10 33.3 °F 22.8 °F 30.04 in SW 2.6 mph 3.5 mph 65 % 0.00 in
08:15 33.5 °F 23.0 °F 30.04 in SW 4.4 mph 8.1 mph 65 % 0.00 in
08:20 33.8 °F 22.9 °F 30.03 in SSW 3.7 mph 6.9 mph 64 % 0.00 in
08:25 34.2 °F 23.3 °F 30.03 in SSW 6.0 mph 7.0 mph 64 % 0.00 in
08:30 34.7 °F 23.0 °F 30.03 in SSW 1.8 mph 5.0 mph 62 % 0.00 in
08:35 35.0 °F 22.9 °F 30.02 in SSW 4.7 mph 6.0 mph 61 % 0.00 in
08:40 35.5 °F 23.4 °F 30.02 in SSW 3.7 mph 11.5 mph 61 % 0.00 in
08:45 35.9 °F 23.7 °F 30.02 in SW 7.9 mph 11.5 mph 61 % 0.00 in
08:50 36.3 °F 23.7 °F 30.02 in SSW 4.8 mph 10.4 mph 60 % 0.00 in
08:56 36.6 °F 23.6 °F 30.02 in SSW 6.3 mph 11.5 mph 59 % 0.00 in
09:01 36.9 °F 23.5 °F 30.01 in SSW 6.1 mph 11.5 mph 58 % 0.00 in
09:06 37.1 °F 23.3 °F 30.01 in SW 4.2 mph 9.2 mph 57 % 0.00 in
09:11 37.3 °F 23.0 °F 30.00 in SSW 6.4 mph 12.7 mph 56 % 0.00 in
09:16 37.5 °F 22.8 °F 30.00 in SSW 4.0 mph 11.5 mph 55 % 0.00 in
09:21 37.7 °F 22.5 °F 30.00 in SW 4.6 mph 11.5 mph 54 % 0.00 in
09:26 37.9 °F 22.7 °F 30.00 in SSW 9.0 mph 13.8 mph 54 % 0.00 in
09:31 38.2 °F 22.6 °F 30.00 in West 4.3 mph 11.5 mph 53 % 0.00 in
09:36 38.4 °F 22.3 °F 29.99 in South 6.2 mph 11.5 mph 52 % 0.00 in
09:41 38.8 °F 22.7 °F 29.99 in South 5.1 mph 8.1 mph 52 % 0.00 in
09:46 39.2 °F 22.1 °F 29.99 in WSW 7.3 mph 14.0 mph 50 % 0.00 in
09:51 39.4 °F 20.8 °F 29.99 in SW 6.7 mph 18.4 mph 47 % 0.00 in
09:56 39.7 °F 21.1 °F 29.98 in SSW 10.4 mph 16.0 mph 47 % 0.00 in
10:01 40.1 °F 20.4 °F 29.98 in SW 9.3 mph 13.0 mph 45 % 0.00 in
10:06 40.3 °F 20.6 °F 29.98 in SW 8.8 mph 18.4 mph 45 % 0.00 in
10:11 40.3 °F 20.1 °F 29.98 in SSW 8.0 mph 16.1 mph 44 % 0.00 in
10:16 40.2 °F 20.5 °F 29.98 in SSW 4.6 mph 4.6 mph 45 % 0.00 in
10:21 40.1 °F 20.4 °F 29.98 in SSW 8.8 mph 12.0 mph 45 % 0.00 in
10:26 40.0 °F 20.3 °F 29.97 in WSW 6.4 mph 15.0 mph 45 % 0.00 in
10:31 40.0 °F 20.3 °F 29.97 in SW 8.4 mph 11.5 mph 45 % 0.00 in
10:36 39.9 °F 20.8 °F 29.97 in SSW 9.6 mph 12.7 mph 46 % 0.00 in
10:42 39.7 °F 20.6 °F 29.96 in SW 7.8 mph 11.5 mph 46 % 0.00 in
10:47 39.7 °F 21.1 °F 29.95 in SW 3.6 mph 8.1 mph 47 % 0.00 in
10:52 39.8 °F 21.2 °F 29.95 in WSW 4.9 mph 9.2 mph 47 % 0.00 in
10:57 40.0 °F 20.9 °F 29.95 in WSW 5.0 mph 8.1 mph 46 % 0.00 in
11:02 40.0 °F 20.9 °F 29.96 in SW 6.0 mph 12.0 mph 46 % 0.00 in
11:07 40.0 °F 20.9 °F 29.95 in SW 6.7 mph 11.5 mph 46 % 0.00 in
11:12 40.2 °F 21.0 °F 29.94 in SW 9.2 mph 18.4 mph 46 % 0.00 in
11:17 40.1 °F 21.0 °F 29.95 in WSW 9.8 mph 15.0 mph 46 % 0.00 in
11:22 40.0 °F 21.4 °F 29.94 in WSW 8.7 mph 12.7 mph 47 % 0.00 in
11:27 39.9 °F 21.3 °F 29.94 in WSW 2.9 mph 4.6 mph 47 % 0.00 in
11:32 39.9 °F 21.3 °F 29.94 in SSW 6.6 mph 11.5 mph 47 % 0.00 in
11:37 40.0 °F 21.9 °F 29.94 in WSW 3.6 mph 5.8 mph 48 % 0.00 in
11:42 40.0 °F 22.4 °F 29.93 in West 6.5 mph 11.5 mph 49 % 0.00 in
11:47 40.1 °F 22.4 °F 29.93 in WSW 4.8 mph 9.2 mph 49 % 0.00 in
11:52 40.2 °F 22.5 °F 29.92 in SW 5.9 mph 8.0 mph 49 % 0.00 in
11:57 40.3 °F 23.6 °F 29.92 in West 3.0 mph 5.0 mph 51 % 0.00 in
12:02 40.4 °F 22.7 °F 29.91 in SW 6.3 mph 9.0 mph 49 % 0.00 in
12:07 40.4 °F 22.7 °F 29.91 in WSW 4.5 mph 9.0 mph 49 % 0.00 in
12:12 40.3 °F 22.1 °F 29.91 in WNW 5.2 mph 9.2 mph 48 % 0.00 in
12:17 40.3 °F 22.6 °F 29.90 in WNW 3.3 mph 6.0 mph 49 % 0.00 in
12:22 40.3 °F 22.6 °F 29.90 in West 4.5 mph 9.2 mph 49 % 0.00 in
12:27 40.3 °F 23.1 °F 29.89 in WSW 3.7 mph 7.0 mph 50 % 0.00 in
12:33 40.4 °F 22.7 °F 29.89 in SSW 3.1 mph 5.8 mph 49 % 0.00 in
12:35 40.5 °F 22.8 °F 29.89 in SW 4.7 mph 7.0 mph 49 % 0.00 in
12:40 40.6 °F 22.9 °F 29.88 in West 1.8 mph 3.5 mph 49 % 0.00 in
12:45 40.8 °F 23.1 °F 29.87 in West 4.5 mph 6.9 mph 49 % 0.00 in
12:50 40.9 °F 23.2 °F 29.87 in WNW 5.9 mph 8.1 mph 49 % 0.00 in
12:55 40.9 °F 23.2 °F 29.88 in WNW 5.2 mph 9.0 mph 49 % 0.00 in
13:00 40.9 °F 23.7 °F 29.87 in WNW 2.6 mph 5.0 mph 50 % 0.00 in
13:05 40.9 °F 23.7 °F 29.86 in NW 2.0 mph 5.8 mph 50 % 0.00 in
13:10 41.2 °F 23.9 °F 29.86 in WSW 5.1 mph 8.1 mph 50 % 0.00 in
13:15 41.5 °F 26.1 °F 29.86 in NW 3.2 mph 5.8 mph 54 % 0.00 in
13:20 41.6 °F 25.7 °F 29.86 in WSW 4.5 mph 5.8 mph 53 % 0.00 in
13:25 41.6 °F 26.2 °F 29.86 in West 2.9 mph 6.0 mph 54 % 0.00 in
13:30 41.5 °F 25.6 °F 29.85 in NW 2.9 mph 4.0 mph 53 % 0.00 in
13:35 41.4 °F 26.0 °F 29.85 in WNW 2.6 mph 4.6 mph 54 % 0.00 in
13:40 41.2 °F 25.8 °F 29.85 in WNW 4.9 mph 6.9 mph 54 % 0.00 in
13:45 41.0 °F 26.1 °F 29.85 in NW 4.2 mph 6.0 mph 55 % 0.00 in
13:50 41.0 °F 26.1 °F 29.84 in NW 1.9 mph 6.9 mph 55 % 0.00 in
13:56 40.8 °F 25.4 °F 29.84 in West 5.1 mph 6.9 mph 54 % 0.00 in
14:01 40.6 °F 25.2 °F 29.84 in West 6.9 mph 10.4 mph 54 % 0.00 in
14:06 40.0 °F 26.0 °F 29.84 in West 3.6 mph 9.2 mph 57 % 0.00 in
14:11 39.6 °F 27.6 °F 29.84 in West 3.2 mph 8.1 mph 62 % 0.00 in
14:16 39.1 °F 28.3 °F 29.83 in West 2.0 mph 3.5 mph 65 % 0.00 in
14:21 38.7 °F 28.3 °F 29.82 in SSW 5.9 mph 10.4 mph 66 % 0.00 in
14:26 38.5 °F 28.5 °F 29.82 in WSW 2.9 mph 5.8 mph 67 % 0.00 in
14:31 38.3 °F 28.3 °F 29.82 in WSW 3.1 mph 7.0 mph 67 % 0.00 in
14:36 38.1 °F 28.5 °F 29.82 in West 3.0 mph 8.1 mph 68 % 0.00 in
14:41 38.0 °F 28.4 °F 29.81 in WSW 3.8 mph 5.0 mph 68 % 0.00 in
14:46 38.0 °F 28.4 °F 29.81 in WNW 3.7 mph 6.9 mph 68 % 0.00 in
14:51 38.1 °F 28.5 °F 29.80 in West 1.7 mph 3.5 mph 68 % 0.00 in
14:56 38.2 °F 28.6 °F 29.80 in West 3.8 mph 5.8 mph 68 % 0.00 in
15:01 38.2 °F 28.6 °F 29.80 in SW 1.6 mph 4.0 mph 68 % 0.00 in
15:06 38.3 °F 28.3 °F 29.80 in West 3.2 mph 4.0 mph 67 % 0.00 in
15:11 38.4 °F 28.8 °F 29.80 in West 1.8 mph 4.0 mph 68 % 0.00 in
15:16 38.5 °F 28.5 °F 29.80 in WSW 2.8 mph 4.0 mph 67 % 0.00 in
15:21 38.6 °F 28.6 °F 29.80 in West 1.5 mph 4.0 mph 67 % 0.00 in
15:26 38.8 °F 28.4 °F 29.80 in WSW 4.6 mph 6.9 mph 66 % 0.00 in
15:31 38.9 °F 28.5 °F 29.80 in West 3.5 mph 8.1 mph 66 % 0.00 in
15:37 38.9 °F 28.5 °F 29.80 in WSW 3.9 mph 4.6 mph 66 % 0.00 in
15:42 38.9 °F 28.5 °F 29.80 in WSW 3.4 mph 6.9 mph 66 % 0.00 in
15:47 38.9 °F 28.5 °F 29.80 in WSW 3.2 mph 6.0 mph 66 % 0.00 in
15:52 39.0 °F 28.6 °F 29.80 in West 4.5 mph 8.1 mph 66 % 0.00 in
15:57 39.1 °F 28.7 °F 29.81 in WSW 4.1 mph 6.9 mph 66 % 0.00 in
16:02 39.1 °F 28.7 °F 29.80 in WSW 2.5 mph 5.8 mph 66 % 0.00 in
16:07 39.2 °F 28.8 °F 29.80 in SW 3.4 mph 8.0 mph 66 % 0.00 in
16:12 39.2 °F 28.4 °F 29.80 in WSW 2.0 mph 3.5 mph 65 % 0.00 in
16:17 39.2 °F 28.8 °F 29.80 in West 3.4 mph 4.6 mph 66 % 0.00 in
16:22 39.2 °F 28.4 °F 29.80 in WSW 4.0 mph 6.9 mph 65 % 0.00 in
16:27 39.2 °F 28.4 °F 29.81 in WSW 1.6 mph 4.6 mph 65 % 0.00 in
16:32 39.2 °F 28.4 °F 29.81 in WSW 2.9 mph 4.0 mph 65 % 0.00 in
16:37 39.1 °F 28.3 °F 29.81 in West 1.7 mph 3.5 mph 65 % 0.00 in
16:42 39.1 °F 28.3 °F 29.81 in West 2.7 mph 4.6 mph 65 % 0.00 in
16:47 39.0 °F 28.2 °F 29.81 in WSW 0.9 mph 1.2 mph 65 % 0.00 in
16:52 38.9 °F 28.1 °F 29.81 in West 2.6 mph 3.5 mph 65 % 0.00 in
16:57 38.8 °F 28.0 °F 29.81 in SW 1.0 mph 3.5 mph 65 % 0.00 in
17:02 38.6 °F 28.2 °F 29.81 in SW 2.4 mph 3.5 mph 66 % 0.00 in
17:07 38.5 °F 28.1 °F 29.81 in SW 0.8 mph 2.3 mph 66 % 0.00 in
17:12 38.3 °F 27.9 °F 29.81 in SSW 0.4 mph   66 % 0.00 in
17:17 38.2 °F 27.8 °F 29.81 in SSW 0.5 mph 1.2 mph 66 % 0.00 in
17:22 38.0 °F 27.6 °F 29.81 in SW 1.4 mph 4.0 mph 66 % 0.00 in
17:27 37.7 °F 26.6 °F 29.81 in WSW 1.0 mph 3.5 mph 64 % 0.00 in
17:28 37.7 °F 26.6 °F 29.81 in SW 2.0 mph 7.0 mph 64 % 0.00 in
17:33 37.5 °F 25.7 °F 29.81 in SW 3.0 mph 7.0 mph 62 % 0.00 in
17:36 37.5 °F 25.3 °F 29.82 in WSW 2.1 mph 4.0 mph 61 % 0.00 in
17:41 37.5 °F 24.9 °F 29.82 in WSW 5.6 mph 9.2 mph 60 % 0.00 in
17:46 37.8 °F 24.3 °F 29.82 in WSW 7.3 mph 13.8 mph 58 % 0.00 in
17:51 38.4 °F 24.5 °F 29.82 in WNW 7.4 mph 12.7 mph 57 % 0.00 in
17:56 38.9 °F 24.1 °F 29.81 in WSW 3.8 mph 9.2 mph 55 % 0.00 in
18:01 39.3 °F 24.5 °F 29.82 in SW 6.1 mph 11.5 mph 55 % 0.00 in
18:06 39.6 °F 24.3 °F 29.82 in WSW 4.2 mph 7.0 mph 54 % 0.00 in
18:11 39.8 °F 24.5 °F 29.83 in SW 5.8 mph 11.5 mph 54 % 0.00 in
18:16 40.2 °F 24.4 °F 29.83 in West 6.6 mph 13.0 mph 53 % 0.00 in
18:17 40.2 °F 24.4 °F 29.83 in West 4.7 mph 12.7 mph 53 % 0.00 in
18:22 40.4 °F 24.1 °F 29.83 in WSW 6.0 mph 13.8 mph 52 % 0.00 in
18:27 40.5 °F 24.2 °F 29.83 in WNW 5.3 mph 6.9 mph 52 % 0.00 in
18:32 40.6 °F 24.3 °F 29.83 in West 4.0 mph 8.1 mph 52 % 0.00 in
18:37 40.5 °F 23.8 °F 29.83 in WSW 6.1 mph 15.0 mph 51 % 0.00 in
18:42 40.5 °F 23.8 °F 29.84 in SW 3.8 mph 6.9 mph 51 % 0.00 in
18:47 40.4 °F 24.1 °F 29.83 in WSW 3.6 mph 6.9 mph 52 % 0.00 in
18:52 40.4 °F 24.1 °F 29.83 in WSW 5.8 mph 10.0 mph 52 % 0.00 in
18:57 40.2 °F 24.0 °F 29.84 in WSW 4.5 mph 8.1 mph 52 % 0.00 in
19:02 40.2 °F 24.0 °F 29.84 in WSW 7.8 mph 13.8 mph 52 % 0.00 in
19:08 40.1 °F 23.9 °F 29.84 in WNW 7.2 mph 11.0 mph 52 % 0.00 in
19:13 40.1 °F 23.9 °F 29.84 in SW 5.7 mph 11.5 mph 52 % 0.00 in
19:18 40.0 °F 23.8 °F 29.84 in West 5.7 mph 14.0 mph 52 % 0.00 in
19:23 40.0 °F 24.2 °F 29.85 in WSW 4.0 mph 9.2 mph 53 % 0.00 in
19:28 39.9 °F 24.1 °F 29.85 in WSW 3.7 mph 9.2 mph 53 % 0.00 in
19:33 39.9 °F 24.1 °F 29.85 in WSW 5.7 mph 13.8 mph 53 % 0.00 in
19:38 39.9 °F 23.7 °F 29.85 in West 7.4 mph 11.5 mph 52 % 0.00 in
19:43 39.9 °F 23.7 °F 29.85 in WSW 3.3 mph 6.9 mph 52 % 0.00 in
19:48 40.0 °F 23.8 °F 29.85 in WSW 5.5 mph 7.0 mph 52 % 0.00 in
19:53 40.1 °F 24.3 °F 29.85 in SW 1.1 mph 6.9 mph 53 % 0.00 in
19:58 40.1 °F 24.3 °F 29.85 in SW 7.8 mph 11.5 mph 53 % 0.00 in
20:03 40.2 °F 24.0 °F 29.85 in SW 7.0 mph 10.4 mph 52 % 0.00 in
20:08 40.4 °F 24.1 °F 29.85 in WSW 4.2 mph 8.0 mph 52 % 0.00 in
20:13 40.5 °F 24.2 °F 29.85 in WSW 5.2 mph 11.5 mph 52 % 0.00 in
20:18 40.6 °F 24.3 °F 29.85 in SW 5.2 mph 11.0 mph 52 % 0.00 in
20:23 40.7 °F 24.4 °F 29.85 in WSW 2.6 mph 9.0 mph 52 % 0.00 in
20:28 40.7 °F 24.4 °F 29.85 in WSW 2.8 mph 7.0 mph 52 % 0.00 in
20:33 40.8 °F 24.5 °F 29.85 in West 1.7 mph 5.8 mph 52 % 0.00 in
20:38 40.8 °F 25.0 °F 29.85 in WSW 5.1 mph 11.5 mph 53 % 0.00 in
20:43 40.8 °F 25.0 °F 29.85 in SW 7.7 mph 15.0 mph 53 % 0.00 in
20:48 40.8 °F 25.0 °F 29.85 in WSW 6.0 mph 13.0 mph 53 % 0.00 in
20:53 40.9 °F 25.1 °F 29.85 in SW 8.0 mph 14.0 mph 53 % 0.00 in
20:58 40.9 °F 25.1 °F 29.85 in West 3.5 mph 11.5 mph 53 % 0.00 in
21:04 41.0 °F 25.2 °F 29.84 in WSW 4.7 mph 11.5 mph 53 % 0.00 in
21:09 41.0 °F 25.2 °F 29.85 in SW 5.4 mph 10.4 mph 53 % 0.00 in
21:14 41.0 °F 25.6 °F 29.84 in SW 8.2 mph 13.8 mph 54 % 0.00 in
21:19 41.1 °F 25.7 °F 29.85 in SSW 4.6 mph 16.1 mph 54 % 0.00 in
21:24 41.1 °F 25.7 °F 29.85 in SSW 5.6 mph 9.0 mph 54 % 0.00 in
21:29 41.1 °F 25.7 °F 29.85 in SW 5.5 mph 9.2 mph 54 % 0.00 in
21:34 41.1 °F 26.1 °F 29.85 in West 5.2 mph 9.2 mph 55 % 0.00 in
21:39 41.2 °F 26.2 °F 29.85 in SW 8.0 mph 15.0 mph 55 % 0.00 in
21:44 41.3 °F 26.3 °F 29.85 in SW 4.8 mph 12.0 mph 55 % 0.00 in
21:49 41.5 °F 26.5 °F 29.85 in SW 8.2 mph 11.5 mph 55 % 0.00 in
21:54 41.6 °F 26.6 °F 29.85 in SSW 6.6 mph 13.8 mph 55 % 0.00 in
21:59 41.8 °F 26.8 °F 29.85 in WSW 5.7 mph 11.5 mph 55 % 0.00 in
22:04 42.1 °F 27.1 °F 29.85 in SSW 7.2 mph 12.7 mph 55 % 0.00 in
22:09 42.2 °F 26.7 °F 29.86 in WSW 7.7 mph 9.2 mph 54 % 0.00 in
22:14 42.4 °F 26.9 °F 29.86 in WNW 4.3 mph 11.5 mph 54 % 0.00 in
22:19 42.6 °F 27.1 °F 29.86 in SW 3.5 mph 15.0 mph 54 % 0.00 in
22:24 42.7 °F 27.2 °F 29.86 in WSW 6.4 mph 11.5 mph 54 % 0.00 in
22:29 42.8 °F 27.3 °F 29.86 in WSW 8.1 mph 15.0 mph 54 % 0.00 in
22:34 42.9 °F 27.4 °F 29.86 in West 6.4 mph 13.0 mph 54 % 0.00 in
22:39 42.9 °F 27.4 °F 29.86 in WSW 6.3 mph 12.7 mph 54 % 0.00 in
22:44 42.9 °F 27.8 °F 29.87 in NW 7.9 mph 15.0 mph 55 % 0.00 in
22:49 43.0 °F 27.9 °F 29.87 in West 9.3 mph 14.0 mph 55 % 0.00 in
22:54 43.0 °F 27.9 °F 29.87 in SSW 5.6 mph 13.8 mph 55 % 0.00 in
22:59 43.1 °F 27.6 °F 29.87 in WSW 7.8 mph 19.6 mph 54 % 0.00 in
23:05 43.1 °F 27.6 °F 29.87 in WSW 6.0 mph 15.0 mph 54 % 0.00 in
23:10 43.1 °F 28.0 °F 29.87 in WNW 6.9 mph 13.8 mph 55 % 0.00 in
23:15 43.1 °F 28.0 °F 29.87 in WNW 5.8 mph 11.5 mph 55 % 0.00 in
23:20 43.0 °F 27.9 °F 29.87 in WSW 8.0 mph 12.7 mph 55 % 0.00 in
23:25 43.0 °F 27.5 °F 29.87 in West 8.3 mph 14.0 mph 54 % 0.00 in
23:30 42.9 °F 27.4 °F 29.87 in WSW 6.7 mph 11.0 mph 54 % 0.00 in
23:35 42.9 °F 27.8 °F 29.87 in West 7.5 mph 12.7 mph 55 % 0.00 in
23:40 42.8 °F 27.3 °F 29.87 in WNW 6.3 mph 12.7 mph 54 % 0.00 in
23:45 42.8 °F 27.3 °F 29.87 in WNW 7.8 mph 19.6 mph 54 % 0.00 in
23:50 42.8 °F 27.3 °F 29.87 in WNW 7.3 mph 13.8 mph 54 % 0.00 in
23:55 42.7 °F 27.2 °F 29.87 in WSW 7.9 mph 16.1 mph 54 % 0.00 in
Crab Meadow Weather
Compliments of Weather Underground - 3 mb

Script developed by  Jim McMurry - jmcmurry@mwt.net Adapted for the template by  Wim van der Kuil - Leuven-Template.eu

Astronomy: The Sun is around 4.5 billion years old.